Other Public Products
Issued by NWS Charleston, SC

Home | Current Version | Previous Version | Text Only | Print | Product List | Glossary On
Versions: 1 2 3 4 5 6 7 8 9 10 11 12 13 14 15 16 17 18 19 20 21 22 23 24 25 26 27 28 29 30 31 32 33 34 35 36 37 38 39 40 41 42 43 44 45 46 47 48 49 50
000
FPUS82 KCHS 281927
OPUCHS

TEST...KCHS/KSAV Gateway Observations...TEST
National Weather Service Charleston SC
300 PM EDT WED JUN 28 2017

NOTE: "fair" indicates few or no clouds below 12,000 feet with no
significant weather and/or obstructions to visibility.

SCZ050-WAZ558-NCZ071-TXZ119-213-PAZ071-DCZ001-FLZ074-172-MI076-
NYZ176-178-MAZ016-IL014-TNZ027-NJZ106-GAZ044-MD014-282000-

...Gateway Observations for Charleston International...

CITY           SKY/WX    TMP DP  RH WIND       PRES   REMARKS
Chas Airport   CLOUDY    86  62  44 E13       30.15F
Seattle        PTSUNNY   61  51  70 SW12      30.06R
Charlotte      MOSUNNY   82  54  37 S8        30.20F
Dallas DFW     MOSUNNY   88  70  55 S13       29.92F HX  93
Dallas Love    PTSUNNY   88  70  55 SE12      29.93F HX  93
Philladelphia  MOSUNNY   79  47  32 W10       30.14S
Wash National  MOSUNNY   81  47  30 VRB5      30.17S
Baltimore      MOSUNNY   80  44  27 VRB6      30.16R
Miami          PTSUNNY   82  74  76 E3        30.02F THUNDER
Detroit        CLOUDY    77  50  38 S13G23    30.06F
Newark         PTSUNNY   78  47  33 NW10G20   30.09F
Laguardia      MOSUNNY   78  50  37 NW17G23   30.09F
J F K          MOSUNNY   80  50  34 W15G22    30.10F
Boston Logan   MOSUNNY   75  49  39 W14       30.03R
Ft. Lauderdale PTSUNNY   85  75  72 SE6       30.02S HX  93
Chicago O`Hare LGT RAIN  71  61  70 S18       29.87F
Chicago Midway CLOUDY    72  61  68 S15G25    29.89F
Houston Bush   MOSUNNY   89  72  56 E12G22    29.89F HX  96
Houston Hobby  MOSUNNY   87  73  62 E13       29.89F HX  94
Nashville      MOSUNNY   87  56  34 S6        30.10F
Atlanta        MOSUNNY   84  60  44 SE7       30.14F

$$

GAZ044-118-TXZ119-213-NCZ071-DCZ001-MDZ014-506-PAZ021-071-NJZ106-
NYZ176-178-MAZ106-OHZ011-021-055-MIZ076-KYZ091-ILZ014-INZ047-
MNZ060-ONZ431-282000-

...Gateway Observations for Savannah International...

CITY           SKY/WX    TMP DP  RH WIND       PRES   REMARKS
Savannah Arpt  CLOUDY    87  65  47 E14       30.13F
Atlanta        MOSUNNY   84  60  44 SE7       30.14F
Charlotte      MOSUNNY   82  54  37 S8        30.20F
Dallas DFW     MOSUNNY   88  70  55 S13       29.92F HX  93
Houston Bush   MOSUNNY   89  72  56 E12G22    29.89F HX  96
Wash National  MOSUNNY   81  47  30 VRB5      30.17S
Wash Dulles    MOSUNNY   78  45  30 VRB5      30.17F
Baltimore      MOSUNNY   80  44  27 VRB6      30.16R
Philadelphia   MOSUNNY   79  47  32 W10       30.14S
Newark         PTSUNNY   78  47  33 NW10G20   30.09F
Laguardia      MOSUNNY   78  50  37 NW17G23   30.09F
J F K          MOSUNNY   80  50  34 W15G22    30.10F
Boston         MOSUNNY   75  49  39 W14       30.03R
Pittsburg      CLOUDY    74  45  35 S8        30.16F
Akron          CLOUDY    74  48  39 SW10      30.14F
Cleveland      CLOUDY    77  50  38 SW8       30.13F
Cincinnati     MOSUNNY   78  56  46 S9        30.12F
Columbus       CLOUDY    77  53  42 SW14      30.13F
Detroit        CLOUDY    77  50  38 S13G23    30.06F
Chicago O`Hare LGT RAIN  71  61  70 S18       29.87F
Minneapolis    PTSUNNY   78  66  66 S18       29.54F
Indianapolis   CLOUDY    78  56  46 SW14G25   30.05F
Toronto Canada PTSUNNY   75  52  43 W8G17     30.04F

$$




USA.gov is the U.S. government's official web portal to all federal, state and local government web resources and services.